Location: Klein M�hlingen
(51.9472°N, 11.7453°E)
Time: 20:19:54
(UTC+00:00)

Envisat - Pass Details

Date: 02 October 2021
Orbit: 764 x 766 km, 98.2° (Epoch: 16 October)

Event Time Altitude Azimuth Distance (km) Brightness Sun altitude
Rises 02:55:29 0° 28° (NNE) 3,244 7.1 -21.9°
Reaches altitude 10° 02:58:59 10° 53° (NE) 2,311 6.6 -21.4°
Maximum altitude 03:01:37 14° 85° (E) 2,032 6.1 -21.1°
Drops below altitude 10° 03:04:16 10° 117° (ESE) 2,301 6.0 -20.7°
Sets 03:07:43 0° 142° (SE) 3,221 6.5 -20.2°
